This demonstration page uses our WeatherBlox Daily Observations layout. Learn more.

Left ArrowRight Arrow

39.51506, -84.39828

Hourly Observations for April 5, 2016

Temp ( °F °C ) Dew Point ( °F °C ) Humidity (%) Winds ( mph kmh ) Pressure ( in mb ) Visibility ( mi km ) Precip ( " mm )
12:15 am 00:15 Cloudy 34 1.2 28 -2.5 77 77 N 6 9 30.33 1027 10 16 N/A
12:35 am 00:35 Cloudy 34 1.2 27 -2.6 76 76 NNE 6 9 30.36 1028 10 16 N/A
12:55 am 00:55 Cloudy 34 1.2 27 -2.9 74 74 NNE 6 9 30.36 1028 10 16 N/A
1:15 am 01:15 Cloudy 34 1.2 27 -2.7 76 76 NNE 6 9 30.36 1028 10 16 N/A
1:35 am 01:35 Cloudy 34 1.2 27 -2.6 76 76 N 3 6 30.36 1028 10 16 N/A
1:55 am 01:55 Cloudy 34 1.2 27 -2.8 75 75 N 6 9 30.36 1028 10 16 N/A
2:15 am 02:15 Cloudy 34 1.2 27 -2.8 75 75 N 5 7 30.36 1028 10 16 N/A
2:35 am 02:35 Cloudy 34 1.2 27 -2.9 74 74 NNE 5 7 30.39 1029 10 16 N/A
2:55 am 02:55 Cloudy 34 1.2 26 -3.2 73 73 NNE 6 9 30.39 1029 10 16 N/A
3:15 am 03:15 Cloudy 34 1.2 26 -3.5 71 71 NNE 6 9 30.39 1029 10 16 N/A
3:35 am 03:35 Cloudy with Drizzle 34 1.2 26 -3.4 72 72 NNE 6 9 30.39 1029 10 16 N/A
3:55 am 03:55 Cloudy 34 1.2 26 -3.3 72 72 NNE 7 11 30.39 1029 10 16 N/A
4:15 am 04:15 Cloudy with Drizzle 34 1.2 26 -3.2 73 73 NNE 7 11 30.39 1029 10 16 N/A
4:35 am 04:35 Cloudy 34 1.2 26 -3.5 71 71 ENE 6 9 30.39 1029 10 16 N/A
4:55 am 04:55 Cloudy 34 1.2 25 -3.7 70 70 ENE 7 11 30.39 1029 10 16 N/A
5:15 am 05:15 Cloudy 34 1.2 25 -3.8 70 70 ENE 9 15 30.42 1030 10 16 N/A
5:35 am 05:35 Cloudy with Light Snow 34 1.2 26 -3.1 73 73 E 9 15 30.42 1030 10 16 N/A
5:55 am 05:55 Cloudy 34 1.2 26 -3.3 72 72 ENE 9 15 30.42 1030 10 16 N/A
6:15 am 06:15 Cloudy 34 1.2 26 -3.2 73 73 E 7 11 30.42 1030 10 16 N/A
6:35 am 06:35 Cloudy 34 1.2 27 -3 74 74 E 10 17 30.45 1031 10 16 N/A
6:55 am 06:55 Cloudy 34 1.2 26 -3.5 71 71 E 10 17 30.45 1031 10 16 N/A
7:15 am 07:15 Cloudy 34 1.2 26 -3.5 71 71 E 13 20 30.48 1032 10 16 N/A
7:35 am 07:35 Cloudy 34 1.2 24 -4.2 68 68 E 10 17 30.48 1032 10 16 N/A
7:55 am 07:55 Cloudy 34 1.2 24 -4.5 66 66 E 12 19 30.48 1032 10 16 N/A
8:15 am 08:15 Cloudy 34 1.2 24 -4.7 65 65 ENE 12 19 30.48 1032 10 16 N/A
8:35 am 08:35 Mostly Cloudy 34 1.2 22 -5.4 62 62 E 9 15 30.48 1032 10 16 N/A
8:55 am 08:55 Mostly Cloudy 34 1.2 21 -6 59 59 ENE 12 19 30.50 1033 10 16 N/A
9:15 am 09:15 Mostly Cloudy 34 1.2 18 -7.8 52 52 ENE 13 20 30.50 1033 10 16 N/A
9:35 am 09:35 Partly Cloudy 35 1.5 17 -8.4 48 48 E 10 17 30.50 1033 10 16 N/A
9:55 am 09:55 Sunny 34 1.2 15 -9.6 45 45 E 12 19 30.50 1033 10 16 N/A
10:15 am 10:15 Sunny 36 2.3 16 -8.9 44 44 E 9 15 30.53 1034 10 16 N/A
10:35 am 10:35 Sunny 37 2.5 15 -9.3 42 42 E 8 13 30.53 1034 10 16 N/A
10:55 am 10:55 Sunny 36 2.2 15 -9.6 42 42 ENE 9 15 30.53 1034 10 16 N/A
11:15 am 11:15 Sunny 37 2.6 14 -9.8 40 40 N N/A 30.53 1034 10 16 N/A
11:35 am 11:35 Sunny 38 3.4 16 -8.7 41 41 E 7 11 30.53 1034 10 16 N/A
11:55 am 11:55 Sunny 37 3 16 -9 41 41 E 10 17 30.53 1034 10 16 N/A
12:15 pm 12:15 Sunny 37 2.6 14 -9.9 40 40 ENE 5 7 30.53 1034 10 16 N/A
12:35 pm 12:35 Sunny 39 4 16 -8.7 39 39 ENE 6 9 30.53 1034 10 16 N/A
12:55 pm 12:55 Sunny 39 4 16 -8.7 39 39 ENE 9 15 30.53 1034 10 16 N/A
1:15 pm 13:15 Sunny 39 4 15 -9.5 37 37 N 3 6 30.50 1033 10 16 N/A
1:35 pm 13:35 Sunny 39 4.1 15 -9.3 37 37 NNE 5 7 30.50 1033 10 16 N/A
1:55 pm 13:55 Sunny 41 5.2 16 -8.8 36 36 NE 7 11 30.48 1032 10 16 N/A
2:15 pm 14:15 Sunny 42 5.5 16 -9.1 34 34 SSE 6 9 30.48 1032 10 16 N/A
2:35 pm 14:35 Sunny 42 5.5 14 -9.8 33 33 NNE 5 7 30.48 1032 10 16 N/A
2:55 pm 14:55 Sunny 42 5.7 15 -9.6 33 33 NNE 5 7 30.48 1032 10 16 N/A
3:15 pm 15:15 Sunny 43 5.9 14 -9.9 31 31 ENE 3 6 30.48 1032 10 16 N/A
3:35 pm 15:35 Sunny 43 6.1 15 -9.7 31 31 N N/A 30.45 1031 10 16 N/A
3:55 pm 15:55 Sunny 43 6.2 13 -10.4 30 30 SW 5 7 30.45 1031 10 16 N/A
4:15 pm 16:15 Sunny 46 7.7 14 -9.8 28 28 E 3 6 30.42 1030 10 16 N/A
4:35 pm 16:35 Sunny 45 7.3 15 -9.5 29 29 ENE 3 6 30.39 1029 10 16 N/A
4:55 pm 16:55 Sunny 46 7.7 14 -9.9 28 28 S 6 9 30.39 1029 10 16 N/A
5:15 pm 17:15 Sunny 47 8.2 13 -10.6 25 25 SE 3 6 30.39 1029 10 16 N/A
5:35 pm 17:35 Sunny 47 8.2 14 -10 27 27 E 7 11 30.39 1029 10 16 N/A
5:55 pm 17:55 Sunny 47 8.2 15 -9.6 27 27 E 7 11 30.39 1029 10 16 N/A
6:15 pm 18:15 Sunny 47 8.2 13 -10.5 26 26 ESE 8 13 30.36 1028 10 16 N/A
6:35 pm 18:35 Sunny 47 8.2 11 -11.5 24 24 SSE 8 13 30.36 1028 10 16 N/A
6:55 pm 18:55 Sunny 47 8.2 13 -10.8 25 25 ESE 10 17 30.36 1028 10 16 N/A
7:15 pm 19:15 Sunny 44 6.8 13 -10.4 28 28 ESE 6 9 30.39 1029 10 16 N/A
7:35 pm 19:35 Sunny 44 6.8 13 -10.3 29 29 SE 7 11 30.39 1029 10 16 N/A
7:55 pm 19:55 Sunny 43 6.1 12 -10.9 29 29 SE 8 13 30.36 1028 10 16 N/A
8:15 pm 20:15 Clear 42 5.7 11 -11.6 28 28 SE 8 13 30.36 1028 10 16 N/A
8:35 pm 20:35 Clear 42 5.5 11 -11.4 29 29 SE 6 9 30.36 1028 10 16 N/A
8:55 pm 20:55 Clear 42 5.5 12 -11 30 30 SE 3 6 30.36 1028 10 16 N/A
9:15 pm 21:15 Clear 40 4.7 13 -10.7 32 32 ESE 3 6 30.36 1028 10 16 N/A
9:35 pm 21:35 Clear 40 4.5 14 -9.8 35 35 ESE 3 6 30.36 1028 10 16 N/A
9:55 pm 21:55 Clear 39 4 15 -9.2 38 38 ESE 5 7 30.33 1027 10 16 N/A
10:15 pm 22:15 Clear 39 4 15 -9.2 38 38 ESE 5 7 30.33 1027 10 16 N/A
10:35 pm 22:35 Clear 39 4 15 -9.4 37 37 ESE 3 6 30.33 1027 10 16 N/A
10:55 pm 22:55 Clear 39 4 15 -9.7 36 36 N N/A 30.30 1026 10 16 N/A
11:15 pm 23:15 Clear 39 4 16 -9 39 39 ESE 3 6 30.30 1026 10 16 N/A
11:35 pm 23:35 Clear 37 2.6 19 -7.2 49 49 N N/A 30.30 1026 10 16 N/A
11:55 pm 23:55 Clear 39 4 15 -9.5 37 37 ESE 5 7 30.27 1025 10 16 N/A

Powered by AerisWeather